Tracking 23726 objects as of 22-Sep-2021
HD Live streaming from Space Station
objects crossing your sky now

STARLINK-1923

Track STARLINK-1923 now!
10-day predictions
STARLINK-1923 is classified as:


NORAD ID: 46754
Int'l Code: 2020-074R
Perigee: 553.0 km
Apogee: 555.6 km
Inclination: 53.1 °
Period: 95.6 minutes
Semi major axis: 6925 km
RCS: Unknown
Launch date: October 24, 2020
Source: United States (US)
Launch site: AIR FORCE EASTERN TEST RANGE (AFETR)
aabbcc
Your satellite tracking list
Your tracking list is empty




NASA's NSSDC Master Catalog

Two Line Element Set (TLE):
1 46754U 20074R   21265.45757770  .00001242  00000-0  10224-3 0  9998
2 46754  53.0542  75.5297 0001848  90.2424 269.8777 15.06407160 51118
Source of the keplerian elements: AFSPC